This is the latest recevied weather packets stored in our database for station/object KN6WGU. If no packets are shown the sender has not sent any weather packets the latest 10 day(s).
| Time | Temp. | Humidity | Pressure | Rain* | Wind** | Luminosity | Snow |
|---|---|---|---|---|---|---|---|
| 1777588040 | 11.67° C | 55% | 1007.5 hPa | 0 mm | - | 42 W/m² | - |
| 1777587736 | 11.11° C | 54% | 1007.6 hPa | 0 mm | - | 43 W/m² | - |
| 1777587430 | 11.11° C | 56% | 1007.6 hPa | 0 mm | - | 40 W/m² | - |
| 1777587127 | 11.11° C | 57% | 1007.6 hPa | 0 mm | - | 40 W/m² | - |
| 1777586822 | 11.11° C | 55% | 1007.4 hPa | 0 mm | - | 41 W/m² | - |
| 1777586518 | 11.67° C | 54% | 1007.5 hPa | 0 mm | - | 77 W/m² | - |
| 1777586213 | 12.22° C | 54% | 1007.4 hPa | 0 mm | - | 76 W/m² | - |
| 1777585912 | 12.22° C | 53% | 1007.4 hPa | 0 mm | - | 232 W/m² | - |
| 1777585607 | 12.22° C | 52% | 1007.4 hPa | 0 mm | - | 188 W/m² | - |
| 1777585301 | 11.67° C | 54% | 1007.3 hPa | 0 mm | - | 112 W/m² | - |
| 1777584997 | 11.67° C | 56% | 1007.4 hPa | 0 mm | - | 53 W/m² | - |
| 1777584694 | 11.67° C | 55% | 1007.4 hPa | 0 mm | - | 75 W/m² | - |
| 1777584391 | 11.67° C | 56% | 1007.4 hPa | 0 mm | - | 65 W/m² | - |
| 1777584087 | 11.67° C | 59% | 1007.4 hPa | 0 mm | - | 70 W/m² | - |
| 1777583787 | 11.67° C | 58% | 1007.7 hPa | 0 mm | - | 68 W/m² | - |
| 1777583487 | 11.67° C | 57% | 1007.7 hPa | 0 mm | - | 48 W/m² | - |
| 1777583181 | 11.67° C | 57% | 1007.5 hPa | 0 mm | - | 60 W/m² | - |
| 1777582877 | 11.67° C | 59% | 1007.6 hPa | 0 mm | - | 47 W/m² | - |
| 1777582574 | 11.67° C | 61% | 1007.6 hPa | 0 mm | - | 63 W/m² | - |
| 1777582269 | 12.22° C | 60% | 1007.7 hPa | 0 mm | - | 68 W/m² | - |
| 1777581966 | 12.22° C | 58% | 1007.5 hPa | 0 mm | - | 220 W/m² | - |
| 1777581662 | 12.78° C | 60% | 1007.5 hPa | 0 mm | - | 105 W/m² | - |
| 1777581356 | 12.78° C | 58% | 1007.6 hPa | 0 mm | - | 101 W/m² | - |
| 1777581051 | 12.78° C | 58% | 1007.7 hPa | 0 mm | - | 511 W/m² | - |
| 1777580750 | 12.78° C | 58% | 1007.7 hPa | 0 mm | - | 523 W/m² | - |
* Rain latest hour (hover to see other rain measurements)
** Current wind speed in m/s (hover to see current wind gust speed)